Location: Astronomy Club of Akron Observatory
(40.9700°N, 81.5606°W)
Time: 02:52:03
(UTC-05:00)

ATLAS 2AS CENTAUR R/B - Visible Passes

Search period start: 30 January 2015 00:00
Search period end: 09 February 2015 00:00
Orbit: 915 x 1298 km, 63.7° (Epoch: 23 January)

Date Brightness Start Highest point End Pass type
(mag) Time Alt. Az. Time Alt. Az. Time Alt. Az.
30 Jan 5.2 03:45:15 13° N 03:45:15 13° N 03:48:05 10° NNE visible
30 Jan 5.0 05:33:40 10° NNW 05:39:03 19° NNE 05:44:37 10° ENE visible
31 Jan 5.4 03:01:52 12° NNE 03:01:52 12° NNE 03:02:45 10° NNE visible
31 Jan 5.1 04:49:18 11° NNW 04:53:22 16° NNE 04:58:04 10° NE visible
31 Jan 4.2 06:39:36 10° NNW 06:47:01 38° NE 06:54:21 10° ESE visible
01 Feb 5.1 04:05:54 13° N 04:07:37 14° N 04:11:33 10° NE visible
01 Feb 4.6 05:54:58 10° NNW 06:01:42 28° NE 06:08:29 10° E visible
02 Feb 5.2 03:22:31 13° N 03:22:31 13° N 03:25:20 10° NNE visible
02 Feb 4.9 05:10:19 10° NNW 05:16:14 22° NNE 05:22:17 10° ENE visible
02 Feb 3.5 07:00:55 10° NNW 07:08:59 65° NE 07:16:48 10° SE visible
03 Feb 5.5 02:39:10 11° NNE 02:39:10 11° NNE 02:39:43 10° NNE visible
03 Feb 5.1 04:26:36 12° NNW 04:30:37 18° NNE 04:35:49 10° ENE visible
03 Feb 4.0 06:16:13 10° NNW 06:23:57 46° NE 06:31:31 10° ESE visible
04 Feb 5.1 03:43:16 14° N 03:44:54 15° NNE 03:49:15 10° NE visible
04 Feb 4.4 05:31:34 10° NNW 05:38:44 34° NE 05:45:52 10° ESE visible
05 Feb 5.3 02:59:57 13° NNE 02:59:57 13° NNE 03:02:50 10° NNE visible
05 Feb 4.7 04:47:23 11° NNW 04:53:21 26° NNE 04:59:51 10° E visible
05 Feb 3.2 06:37:35 10° NNW 06:45:45 80° NE 06:53:36 10° SE visible
06 Feb 5.6 02:16:40 10° NNE 02:16:40 10° NNE 02:16:50 10° NNE visible
06 Feb 5.0 04:04:07 15° N 04:07:49 20° NNE 04:13:32 10° ENE visible
06 Feb 3.7 05:52:51 10° NNW 06:00:49 56° NE 06:08:33 10° SE visible
07 Feb 5.1 03:20:52 16° N 03:22:10 16° NNE 03:27:01 10° NE visible
07 Feb 4.1 05:08:19 11° NNW 05:15:42 40° NE 05:23:07 10° ESE visible
07 Feb 3.3 06:59:14 10° NW 07:07:08 57° WSW 07:14:38 10° SSE visible
08 Feb 5.3 02:37:41 14° NNE 02:37:41 14° NNE 02:40:27 10° NE visible
08 Feb 4.5 04:25:09 16° NNW 04:30:25 30° NE 04:37:19 10° E visible
08 Feb 3.1 06:14:17 10° NW 06:22:27 83° WSW 06:30:15 10° SSE visible
08 Feb 4.5 20:06:38 10° SSE 20:07:59 16° SSE 20:07:59 16° SSE visible
